| time (UTC) | temp C | wind direction | speed KPH | gust KPH | rain 1hr cm | rain 24hr cm | rain mn cm | humidity % | barometer mb |
| 20260510180111 | 25 | 1 | 8.0 | 20.9 | 0.00 | 0.20 | 0.00 | 51 | 1014.3 |
| 20260510180003 | 24 | 1 | 8.0 | 20.9 | 0.00 | 0.20 | 0.00 | 51 | 1014.2 |
| 20260510174604 | 23 | 1 | 3.2 | 20.9 | 0.00 | 0.20 | 0.00 | 49 | 1014.2 |
| 20260510173107 | 23 | 1 | 1.6 | 24.1 | 0.00 | 0.20 | 0.00 | 52 | 1014.4 |
| 20260510171609 | 23 | 1 | 4.8 | 19.3 | 0.00 | 0.20 | 0.00 | 51 | 1014.3 |
| 20260510170100 | 23 | 1 | 6.4 | 12.9 | 0.00 | 0.20 | 0.00 | 52 | 1014.3 |
| 20260510170003 | 23 | 1 | 9.7 | 14.5 | 0.00 | 0.20 | 0.00 | 51 | 1014.3 |
| 20260510164605 | 22 | 1 | 6.4 | 16.1 | 0.00 | 0.20 | 0.00 | 54 | 1014.3 |
| 20260510163101 | 22 | 1 | 8.0 | 16.1 | 0.00 | 0.20 | 0.00 | 56 | 1014.4 |
| 20260510163008 | 22 | 1 | 6.4 | 14.5 | 0.00 | 0.20 | 0.00 | 56 | 1014.4 |
| 20260510161601 | 21 | 1 | 1.6 | 19.3 | 0.00 | 0.20 | 0.00 | 59 | 1014.4 |
| 20260510160002 | 20 | 1 | 4.8 | 12.9 | 0.00 | 0.20 | 0.00 | 61 | 1014.4 |
| 20260510154600 | 20 | 1 | 8.0 | 17.7 | 0.00 | 0.20 | 0.00 | 61 | 1014.5 |
| 20260510151608 | 19 | 1 | 1.6 | 12.9 | 0.00 | 0.20 | 0.00 | 68 | 1014.6 |
| 20260510150110 | 18 | 1 | 6.4 | 14.5 | 0.00 | 0.20 | 0.00 | 72 | 1014.7 |
| 20260510150002 | 18 | 1 | 4.8 | 14.5 | 0.00 | 0.20 | 0.00 | 73 | 1014.7 |
| 20260510144608 | 17 | 1 | 1.6 | 9.7 | 0.00 | 0.20 | 0.00 | 77 | 1014.7 |
| 20260510143108 | 16 | 1 | 0.0 | 6.4 | 0.00 | 0.20 | 0.00 | 81 | 1014.7 |
| 20260510141559 | 15 | 1 | 0.0 | 4.8 | 0.00 | 0.20 | 0.00 | 87 | 1014.7 |
| 20260510140059 | 15 | 1 | 3.2 | 8.0 | 0.00 | 0.20 | 0.00 | 91 | 1014.6 |
| 20260510140004 | 15 | 1 | 1.6 | 8.0 | 0.00 | 0.20 | 0.00 | 92 | 1014.6 |
| 20260510134608 | 13 | 1 | 1.6 | 6.4 | 0.00 | 0.20 | 0.00 | 93 | 1014.6 |
| 20260510133100 | 12 | 1 | 0.0 | 4.8 | 0.00 | 0.20 | 0.00 | 94 | 1014.4 |
| 20260510131600 | 12 | 1 | 0.0 | 1.6 | 0.00 | 0.20 | 0.00 | 95 | 1014.5 |
| 20260510130119 | 11 | 1 | 0.0 | 0.0 | 0.00 | 0.20 | 0.00 | 95 | 1014.7 |
| 20260510130002 | 11 | 1 | 0.0 | 0.0 | 0.00 | 0.20 | 0.00 | 95 | 1014.6 |
| 20260510124604 | 11 | 1 | 0.0 | 0.0 | 0.00 | 0.20 | 0.00 | 95 | 1014.6 |
| 20260510123100 | 11 | 1 | 0.0 | 3.2 | 0.00 | 0.20 | 0.00 | 95 | 1014.4 |
| 20260510121559 | 10 | 1 | 0.0 | 9.7 | 0.00 | 0.20 | 0.00 | 94 | 1014.2 |
| 20260510120059 | 10 | 1 | 0.0 | 4.8 | 0.00 | 0.20 | 0.00 | 94 | 1014.0 |
| 20260510120002 | 10 | 1 | 0.0 | 3.2 | 0.00 | 0.20 | 0.00 | 94 | 1014.0 |
| 20260510114559 | 10 | 1 | 0.0 | 6.4 | 0.00 | 0.20 | 0.00 | 94 | 1014.0 |
| 20260510113112 | 10 | 1 | 0.0 | 6.4 | 0.00 | 0.20 | 0.00 | 94 | 1013.6 |
| 20260510111559 | 10 | 1 | 3.2 | 4.8 | 0.00 | 0.20 | 0.00 | 94 | 1013.9 |
| 20260510110059 | 10 | 1 | 1.6 | 6.4 | 0.00 | 0.20 | 0.00 | 94 | 1013.7 |
| 20260510110001 | 10 | 1 | 1.6 | 6.4 | 0.00 | 0.20 | 0.00 | 94 | 1013.7 |
| 20260510104559 | 10 | 1 | 0.0 | 4.8 | 0.00 | 0.20 | 0.00 | 94 | 1013.2 |
| 20260510103100 | 10 | 1 | 0.0 | 4.8 | 0.00 | 0.20 | 0.00 | 94 | 1013.2 |
| 20260510101546 | 10 | 1 | 0.0 | 4.8 | 0.00 | 0.20 | 0.00 | 94 | 1013.2 |
| 20260510100043 | 10 | 1 | 0.0 | 4.8 | 0.00 | 0.20 | 0.00 | 94 | 1012.9 |
| 20260510094540 | 10 | 1 | 0.0 | 4.8 | 0.00 | 0.20 | 0.00 | 94 | 1012.8 |
| 20260510093045 | 10 | 1 | 0.0 | 6.4 | 0.00 | 0.20 | 0.00 | 94 | 1012.8 |
| 20260510091544 | 9 | 1 | 0.0 | 6.4 | 0.00 | 0.20 | 0.00 | 94 | 1012.9 |
| 20260510090043 | 9 | 1 | 3.2 | 11.3 | 0.00 | 0.20 | 0.00 | 94 | 1013.0 |
| 20260510090012 | 9 | 1 | 1.6 | 11.3 | 0.00 | 0.20 | 0.00 | 94 | 1013.0 |
| 20260510084510 | 8 | 1 | 6.4 | 16.1 | 0.00 | 0.20 | 0.00 | 94 | 1013.2 |
| 20260510083010 | 8 | 1 | 9.7 | 16.1 | 0.00 | 0.20 | 0.00 | 94 | 1012.8 |
| 20260510081510 | 8 | 1 | 0.0 | 1.6 | 0.00 | 0.20 | 0.00 | 93 | 1012.2 |
| 20260510080015 | 8 | 1 | 0.0 | 0.0 | 0.00 | 0.20 | 0.00 | 93 | 1012.2 |
| 20260510074510 | 8 | 1 | 0.0 | 4.8 | 0.00 | 0.20 | 0.00 | 93 | 1012.2 |
| 20260510073011 | 8 | 1 | 0.0 | 8.0 | 0.00 | 0.20 | 0.00 | 93 | 1012.1 |
| 20260510071516 | 8 | 1 | 0.0 | 6.4 | 0.00 | 0.20 | 0.00 | 93 | 1012.1 |
| 20260510070012 | 9 | 1 | 3.2 | 6.4 | 0.00 | 0.20 | 0.00 | 93 | 1011.9 |
| 20260510064529 | 9 | 1 | 0.0 | 0.0 | 0.00 | 0.20 | 0.00 | 93 | 1011.6 |
| 20260510063010 | 9 | 1 | 0.0 | 0.0 | 0.00 | 0.20 | 0.00 | 93 | 1011.5 |
| 20260510061510 | 10 | 1 | 0.0 | 0.0 | 0.00 | 0.20 | 0.00 | 93 | 1011.6 |
| 20260510060013 | 10 | 1 | 0.0 | 0.0 | 0.00 | 0.20 | 0.00 | 93 | 1011.7 |
| 20260510054511 | 10 | 1 | 0.0 | 0.0 | 0.00 | 0.20 | 0.00 | 93 | 1011.9 |
| 20260510053026 | 10 | 1 | 0.0 | 0.0 | 0.00 | 0.20 | 0.00 | 93 | 1011.9 |
| 20260510051521 | 10 | 1 | 0.0 | 0.0 | 0.00 | 0.20 | 0.00 | 93 | 1012.0 |
| 20260510050018 | 10 | 1 | 0.0 | 0.0 | 0.00 | 0.20 | 0.00 | 93 | 1012.1 |
| 20260510044512 | 10 | 1 | 0.0 | 0.0 | 0.00 | 0.20 | 0.00 | 93 | 1012.2 |
| 20260510043012 | 10 | 1 | 0.0 | 0.0 | 0.00 | 0.20 | 0.00 | 93 | 1012.3 |
| 20260510041519 | 10 | 1 | 0.0 | 0.0 | 0.00 | 0.20 | 0.00 | 92 | 1012.3 |
| 20260510040017 | 10 | 1 | 0.0 | 0.0 | 0.00 | 0.20 | 0.00 | 93 | 1012.4 |
| 20260510034513 | 11 | 1 | 0.0 | 0.0 | 0.00 | 0.20 | 0.20 | 93 | 1012.2 |
| 20260510033012 | 11 | 1 | 1.6 | 3.2 | 0.00 | 0.20 | 0.20 | 93 | 1012.1 |
| 20260510031522 | 11 | 1 | 1.6 | 4.8 | 0.00 | 0.20 | 0.20 | 92 | 1011.9 |
| 20260510030015 | 11 | 1 | 1.6 | 4.8 | 0.00 | 0.20 | 0.20 | 92 | 1011.9 |
| 20260510024512 | 11 | 1 | 3.2 | 4.8 | 0.00 | 0.20 | 0.20 | 92 | 1011.9 |
| 20260510023012 | 11 | 1 | 1.6 | 4.8 | 0.00 | 0.20 | 0.20 | 92 | 1011.8 |
| 20260510021516 | 11 | 1 | 0.0 | 0.0 | 0.00 | 0.20 | 0.20 | 92 | 1011.8 |
| 20260510020019 | 11 | 1 | 1.6 | 4.8 | 0.00 | 0.20 | 0.20 | 92 | 1011.7 |
| 20260510014513 | 11 | 1 | 1.6 | 6.4 | 0.00 | 0.20 | 0.20 | 92 | 1011.7 |
| 20260510013013 | 11 | 1 | 3.2 | 6.4 | 0.00 | 0.20 | 0.20 | 92 | 1011.7 |
| 20260510011513 | 11 | 1 | 3.2 | 6.4 | 0.00 | 0.20 | 0.20 | 92 | 1011.7 |
| 20260510010015 | 11 | 1 | 1.6 | 6.4 | 0.00 | 0.20 | 0.20 | 91 | 1011.5 |
| 20260510004513 | 11 | 1 | 1.6 | 6.4 | 0.00 | 0.20 | 0.20 | 91 | 1011.3 |
| 20260510003013 | 11 | 1 | 0.0 | 3.2 | 0.00 | 0.20 | 0.20 | 91 | 1011.4 |
| 20260510001512 | 12 | 1 | 1.6 | 4.8 | 0.00 | 0.20 | 0.20 | 90 | 1011.2 |
| 20260510000018 | 12 | 1 | 0.0 | 0.0 | 0.00 | 0.20 | 0.20 | 90 | 1011.3 |
| 20260509234514 | 12 | 1 | 0.0 | 0.0 | 0.00 | 0.20 | 0.20 | 90 | 1011.3 |
| 20260509233018 | 12 | 1 | 0.0 | 0.0 | 0.00 | 0.20 | 0.20 | 90 | 1011.2 |
| 20260509231513 | 12 | 1 | 0.0 | 6.4 | 0.00 | 0.20 | 0.20 | 90 | 1011.1 |
| 20260509230015 | 13 | 1 | 1.6 | 4.8 | 0.00 | 0.20 | 0.20 | 91 | 1011.1 |
| 20260509224513 | 12 | 1 | 3.2 | 8.0 | 0.00 | 0.20 | 0.20 | 91 | 1011.1 |
| 20260509223013 | 12 | 1 | 3.2 | 11.3 | 0.00 | 0.20 | 0.20 | 90 | 1011.1 |
| 20260509221513 | 12 | 1 | 4.8 | 8.0 | 0.03 | 0.20 | 0.20 | 90 | 1011.1 |
| 20260509220014 | 12 | 1 | 3.2 | 9.7 | 0.10 | 0.20 | 0.20 | 90 | 1011.2 |
| 20260509214513 | 12 | 1 | 4.8 | 9.7 | 0.20 | 0.20 | 0.20 | 89 | 1011.3 |
| 20260509213017 | 12 | 1 | 0.0 | 8.0 | 0.20 | 0.20 | 0.20 | 88 | 1011.7 |
| 20260509211520 | 13 | 1 | 1.6 | 3.2 | 0.18 | 0.18 | 0.18 | 86 | 1011.6 |
| 20260509210014 | 13 | 1 | 3.2 | 9.7 | 0.08 | 0.08 | 0.08 | 84 | 1011.3 |
| 20260509204513 | 13 | 1 | 0.0 | 8.0 | 0.00 | 0.00 | 0.00 | 82 | 1011.0 |
| 20260509203023 | 13 | 1 | 3.2 | 12.9 | 0.00 | 0.00 | 0.00 | 81 | 1011.3 |
| 20260509201513 | 13 | 1 | 4.8 | 14.5 | 0.00 | 0.00 | 0.00 | 83 | 1011.0 |
| 20260509200015 | 13 | 1 | 8.0 | 19.3 | 0.00 | 0.00 | 0.00 | 81 | 1011.3 |
| 20260509194512 | 13 | 1 | 9.7 | 19.3 | 0.00 | 0.00 | 0.00 | 81 | 1011.3 |
| 20260509193013 | 13 | 1 | 4.8 | 11.3 | 0.00 | 0.00 | 0.00 | 83 | 1011.8 |
| 20260509191512 | 13 | 1 | 6.4 | 14.5 | 0.00 | 0.00 | 0.00 | 82 | 1012.2 |
| 20260509190015 | 13 | 1 | 4.8 | 14.5 | 0.00 | 0.00 | 0.00 | 79 | 1012.0 |
| 20260509184511 | 13 | 1 | 6.4 | 17.7 | 0.00 | 0.00 | 0.00 | 78 | 1012.2 |
| 20260509183014 | 14 | 1 | 9.7 | 19.3 | 0.00 | 0.00 | 0.00 | 78 | 1012.2 |
| 20260509181511 | 15 | 1 | 4.8 | 17.7 | 0.00 | 0.00 | 0.00 | 74 | 1012.2 |